FW2834 Weather Reports


Display with metric or nautical units.
time (UTC)temp
F
wind
direction
speed
MPH
gust
MPH
rain 1hr
in
rain 24hr
in
rain mn
in
humidity
%
barometer
mb
20260508235549 65 105 0.0 3.0 0.00 0.00 0.00 46 1008.5
20260508235051 65 104 0.0 3.0 0.00 0.00 0.00 46 1008.5
20260508234549 66 105 0.0 6.0 0.00 0.00 0.00 46 1008.6
20260508234048 66 159 0.0 1.0 0.00 0.00 0.00 47 1008.4
20260508233552 66 159 0.0 1.0 0.00 0.00 0.00 46 1008.5
20260508233049 66 159 0.0 1.0 0.00 0.00 0.00 44 1008.6
20260508232547 66 159 0.0 1.0 0.00 0.00 0.00 43 1008.6
20260508232053 67 159 0.0 1.0 0.00 0.00 0.00 43 1008.6
20260508231547 67 159 0.0 1.0 0.00 0.00 0.00 41 1008.5
20260508231047 67 159 0.0 3.0 0.00 0.00 0.00 40 1008.4
20260508230547 67 158 0.0 3.0 0.00 0.00 0.00 41 1008.3
20260508230051 67 158 0.0 3.0 0.00 0.00 0.00 40 1008.3
20260508225547 67 283 0.0 3.0 0.00 0.00 0.00 39 1008.4
20260508225047 67 283 0.0 2.0 0.00 0.00 0.00 39 1008.2
20260508224551 67 258 0.0 2.0 0.00 0.00 0.00 38 1008.3
20260508224046 68 258 0.0 2.0 0.00 0.00 0.00 40 1008.2
20260508223545 68 267 0.0 3.0 0.00 0.00 0.00 39 1008.2
20260508223050 68 267 1.0 5.0 0.00 0.00 0.00 39 1008.2
20260508222545 68 151 1.0 4.0 0.00 0.00 0.00 40 1008.1
20260508222045 68 163 0.0 3.0 0.00 0.00 0.00 40 1008.2
20260508221550 68 169 0.0 7.0 0.00 0.00 0.00 38 1008.2
20260508221045 68 169 1.0 7.0 0.00 0.00 0.00 39 1008.2
20260508220545 68 81 0.0 2.0 0.00 0.00 0.00 40 1008.2
20260508220044 68 81 0.0 2.0 0.00 0.00 0.00 40 1008.2
20260508215543 68 335 0.0 3.0 0.00 0.00 0.00 38 1008.1
20260508215043 68 335 0.0 3.0 0.00 0.00 0.00 38 1008.1
20260508214557 68 242 0.0 3.0 0.00 0.00 0.00 37 1008.1
20260508214041 68 47 0.0 5.0 0.00 0.00 0.00 37 1008.2
20260508213541 68 5 0.0 5.0 0.00 0.00 0.00 38 1008.2
20260508213041 68 314 0.0 3.0 0.00 0.00 0.00 38 1008.3
20260508212541 68 318 0.0 3.0 0.00 0.00 0.00 36 1008.3
20260508212039 69 280 0.0 3.0 0.00 0.00 0.00 37 1008.4
20260508211541 69 283 0.0 3.0 0.00 0.00 0.00 36 1008.4
20260508211038 69 265 0.0 3.0 0.00 0.00 0.00 36 1008.5
20260508210539 69 83 0.0 2.0 0.00 0.00 0.00 37 1008.6
20260508210038 69 82 0.0 2.0 0.00 0.00 0.00 36 1008.8
20260508205537 69 82 0.0 5.0 0.00 0.00 0.00 37 1008.9
20260508205038 69 69 0.0 5.0 0.00 0.00 0.00 34 1008.9
20260508204538 69 319 0.0 1.0 0.00 0.00 0.00 35 1009.1
20260508204037 69 327 0.0 2.0 0.00 0.00 0.00 35 1009.2
20260508203536 69 327 0.0 4.0 0.00 0.00 0.00 35 1009.2
20260508203036 69 20 0.0 8.0 0.00 0.00 0.00 35 1009.1
20260508202535 69 332 1.0 5.0 0.00 0.00 0.00 34 1009.1
20260508202034 69 318 0.0 3.0 0.00 0.00 0.00 35 1009.3
20260508201535 70 297 1.0 4.0 0.00 0.00 0.00 34 1009.3
20260508201036 70 266 1.0 4.0 0.00 0.00 0.00 33 1009.3
20260508200534 70 198 0.0 3.0 0.00 0.00 0.00 34 1009.3
20260508200040 70 215 0.0 3.0 0.00 0.00 0.00 34 1009.4
20260508195534 71 336 1.0 4.0 0.00 0.00 0.00 32 1009.6
20260508195033 71 24 1.0 4.0 0.00 0.00 0.00 31 1009.4
20260508194533 72 273 0.0 4.0 0.00 0.00 0.00 32 1009.5
20260508194035 72 259 1.0 6.0 0.00 0.00 0.00 33 1009.6
20260508193532 72 249 0.0 6.0 0.00 0.00 0.00 32 1009.6
20260508193043 73 93 0.0 4.0 0.00 0.00 0.00 33 1009.6
20260508192531 73 96 0.0 4.0 0.00 0.00 0.00 31 1009.7
20260508192033 73 117 0.0 7.0 0.00 0.00 0.00 30 1009.7
20260508191536 74 144 1.0 7.0 0.00 0.00 0.00 31 1009.7
20260508191029 73 305 1.0 6.0 0.00 0.00 0.00 30 1009.8
20260508190529 73 275 1.0 6.0 0.00 0.00 0.00 31 1010.0
20260508190046 73 269 2.0 5.0 0.00 0.00 0.00 33 1010.1
20260508185529 72 349 1.0 5.0 0.00 0.00 0.00 34 1010.0
20260508185025 72 171 0.0 6.0 0.00 0.00 0.00 34 1010.1
20260508184532 72 142 1.0 6.0 0.00 0.00 0.00 33 1010.2
20260508184029 72 261 1.0 4.0 0.00 0.00 0.00 31 1010.3
20260508183523 72 229 1.0 5.0 0.00 0.00 0.00 33 1010.4
20260508183033 72 80 1.0 5.0 0.00 0.00 0.00 38 1010.5
20260508182521 72 308 0.0 5.0 0.00 0.00 0.00 30 1010.6
20260508182020 73 282 1.0 6.0 0.00 0.00 0.00 32 1010.6
20260508181521 73 276 1.0 9.0 0.00 0.00 0.00 33 1010.7
20260508181021 72 130 3.0 9.0 0.00 0.00 0.00 31 1010.8
20260508180518 72 228 2.0 8.0 0.00 0.00 0.00 30 1010.9
20260508180018 72 218 0.0 4.0 0.00 0.00 0.00 34 1010.9
20260508175517 71 319 2.0 8.0 0.00 0.00 0.00 36 1011.0
20260508175017 71 27 1.0 4.0 0.00 0.00 0.00 35 1011.0
20260508174516 71 250 2.0 7.0 0.00 0.00 0.00 34 1011.0
20260508174015 71 268 1.0 7.0 0.00 0.00 0.00 33 1011.2
20260508173514 71 344 2.0 5.0 0.00 0.00 0.00 37 1011.3
20260508173015 71 277 1.0 5.0 0.00 0.00 0.00 35 1011.7
20260508172515 71 281 0.0 6.0 0.00 0.00 0.00 36 1011.8
20260508172013 71 236 2.0 6.0 0.00 0.00 0.00 34 1011.8
20260508171517 72 95 0.0 6.0 0.00 0.00 0.00 35 1011.9
20260508171011 72 263 1.0 6.0 0.00 0.00 0.00 31 1012.1
20260508170511 73 19 1.0 4.0 0.00 0.00 0.00 34 1012.1
20260508170011 72 221 0.0 8.0 0.00 0.00 0.00 37 1012.1
20260508165509 72 294 1.0 8.0 0.00 0.00 0.00 35 1012.2
20260508165010 72 281 1.0 5.0 0.00 0.00 0.00 35 1012.3
20260508164518 72 308 2.0 7.0 0.00 0.00 0.00 35 1012.5
20260508164007 72 261 2.0 7.0 0.00 0.00 0.00 33 1012.5
20260508163504 72 270 1.0 4.0 0.00 0.00 0.00 36 1012.6
20260508163011 72 304 0.0 4.0 0.00 0.00 0.00 34 1012.7
20260508162502 71 233 1.0 3.0 0.00 0.00 0.00 38 1012.7
20260508162100 71 280 0.0 3.0 0.00 0.00 0.00 39 1012.7
20260508161607 71 236 0.0 4.0 0.00 0.00 0.00 36 1012.9
20260508161059 71 309 2.0 4.0 0.00 0.00 0.00 35 1013.0
20260508160556 70 32 1.0 5.0 0.00 0.00 0.00 37 1013.1
20260508160056 70 286 2.0 9.0 0.00 0.00 0.00 37 1013.0
20260508155555 70 277 2.0 9.0 0.00 0.00 0.00 37 1013.0
20260508155054 70 211 0.0 6.0 0.00 0.00 0.00 40 1013.1
20260508154553 69 242 0.0 5.0 0.00 0.00 0.00 37 1013.2
20260508154051 69 159 1.0 5.0 0.00 0.00 0.00 39 1013.2
20260508153552 69 269 1.0 4.0 0.00 0.00 0.00 38 1013.3
20260508153055 68 309 0.0 4.0 0.00 0.00 0.00 40 1013.4
20260508152549 68 290 0.0 5.0 0.00 0.00 0.00 40 1013.5
20260508152045 67 309 1.0 5.0 0.00 0.00 0.00 39 1013.5
20260508151545 67 292 1.0 4.0 0.00 0.00 0.00 40 1013.5
20260508151043 67 300 1.0 7.0 0.00 0.00 0.00 39 1013.6
20260508150541 66 55 1.0 7.0 0.00 0.00 0.00 40 1013.5
20260508150041 66 11 1.0 5.0 0.00 0.00 0.00 42 1013.6
20260508145539 65 186 1.0 7.0 0.00 0.00 0.00 43 1013.7
20260508145037 64 159 1.0 7.0 0.00 0.00 0.00 40 1013.7
20260508144541 64 323 1.0 6.0 0.00 0.00 0.00 42 1013.7
20260508144034 63 304 1.0 6.0 0.00 0.00 0.00 42 1013.6
20260508143534 63 41 0.0 4.0 0.00 0.00 0.00 44 1013.7
20260508143031 62 272 0.0 6.0 0.00 0.00 0.00 45 1013.9
20260508142529 62 267 1.0 6.0 0.00 0.00 0.00 45 1013.9
20260508142028 61 228 1.0 6.0 0.00 0.00 0.00 46 1013.9
20260508141526 60 275 1.0 6.0 0.00 0.00 0.00 48 1014.1
20260508141024 59 241 1.0 4.0 0.00 0.00 0.00 50 1014.2
20260508140523 59 228 0.0 5.0 0.00 0.00 0.00 50 1014.2
20260508140025 58 311 1.0 5.0 0.00 0.00 0.00 52 1014.3
20260508135521 57 251 0.0 3.0 0.00 0.00 0.00 53 1014.3
20260508135020 56 305 1.0 3.0 0.00 0.00 0.00 54 1014.3
20260508134517 55 319 1.0 3.0 0.00 0.00 0.00 56 1014.2
20260508134017 54 288 0.0 3.0 0.00 0.00 0.00 58 1014.3
20260508133517 53 324 0.0 3.0 0.00 0.00 0.00 59 1014.3
20260508133013 52 328 0.0 3.0 0.00 0.00 0.00 61 1014.4
20260508132514 52 311 0.0 2.0 0.00 0.00 0.00 62 1014.3
20260508132010 51 226 0.0 3.0 0.00 0.00 0.00 62 1014.3
20260508131509 51 223 1.0 3.0 0.00 0.00 0.00 62 1014.3
20260508131008 50 268 0.0 3.0 0.00 0.00 0.00 63 1014.3
20260508130507 49 233 0.0 2.0 0.00 0.00 0.00 63 1014.2
20260508130007 49 233 0.0 2.0 0.00 0.00 0.00 64 1014.2
20260508125508 48 232 0.0 2.0 0.00 0.00 0.00 64 1014.1
20260508125004 48 234 0.0 2.0 0.00 0.00 0.00 64 1014.1
20260508124502 47 128 0.0 2.0 0.00 0.00 0.00 65 1014.1
20260508124003 47 129 0.0 1.0 0.00 0.00 0.00 65 1014.2
20260508123601 47 129 0.0 1.0 0.00 0.00 0.00 66 1014.1
20260508123116 46 129 0.0 1.0 0.00 0.00 0.00 66 1014.0
20260508122558 46 129 0.0 4.0 0.00 0.00 0.00 66 1014.1
20260508122057 46 129 0.0 4.0 0.00 0.00 0.00 67 1014.2
20260508121608 46 275 0.0 0.0 0.00 0.00 0.00 68 1014.2
20260508121055 46 275 0.0 0.0 0.00 0.00 0.00 68 1014.3
20260508120553 46 275 0.0 0.0 0.00 0.00 0.00 68 1014.3
20260508120108 46 275 0.0 1.0 0.00 0.00 0.00 69 1014.3
20260508115553 45 275 0.0 1.0 0.00 0.00 0.00 69 1014.2
20260508115052 45 275 0.0 0.0 0.00 0.00 0.00 69 1014.3
20260508114559 45 275 0.0 0.0 0.00 0.00 0.00 70 1014.1
20260508114053 45 275 0.0 0.0 0.00 0.00 0.00 70 1014.1
20260508113553 45 275 0.0 0.0 0.00 0.00 0.00 70 1013.9
20260508113105 45 275 0.0 2.0 0.00 0.00 0.00 70 1013.9
20260508112549 44 275 0.0 2.0 0.00 0.00 0.00 71 1013.8
20260508112049 44 275 0.0 1.0 0.00 0.00 0.00 71 1013.7
20260508111551 44 275 0.0 0.0 0.00 0.00 0.00 72 1013.8
20260508111049 44 275 0.0 0.0 0.00 0.00 0.00 72 1013.7
20260508110548 44 275 0.0 0.0 0.00 0.00 0.00 72 1013.7
20260508110051 44 275 0.0 0.0 0.00 0.00 0.00 72 1013.7
20260508105549 44 275 0.0 0.0 0.00 0.00 0.00 72 1013.7
20260508105046 43 275 0.0 0.0 0.00 0.00 0.00 72 1013.7
20260508104645 43 275 0.0 0.0 0.00 0.00 0.00 72 1013.6
20260508104045 43 275 0.0 0.0 0.00 0.00 0.00 72 1013.7
20260508103546 43 275 0.0 0.0 0.00 0.00 0.00 72 1013.6
20260508103057 43 275 0.0 0.0 0.00 0.00 0.00 72 1013.5
20260508102544 43 275 0.0 0.0 0.00 0.00 0.00 72 1013.6
20260508102044 43 275 0.0 0.0 0.00 0.00 0.00 72 1013.6
20260508101552 43 275 0.0 0.0 0.00 0.00 0.00 72 1013.6
20260508101044 43 275 0.0 0.0 0.00 0.00 0.00 72 1013.6
20260508100543 43 276 0.0 0.0 0.00 0.00 0.00 72 1013.6
20260508100043 43 275 0.0 0.0 0.00 0.00 0.00 72 1013.6
20260508095543 43 275 0.0 0.0 0.00 0.00 0.00 72 1013.6
20260508095043 43 275 0.0 0.0 0.00 0.00 0.00 72 1013.6
20260508094543 43 275 0.0 0.0 0.00 0.00 0.00 71 1013.6
20260508094042 42 275 0.0 0.0 0.00 0.00 0.00 71 1013.6
20260508093546 42 275 0.0 0.0 0.00 0.00 0.00 71 1013.5
20260508093042 42 275 0.0 0.0 0.00 0.00 0.00 71 1013.5
20260508092542 42 275 0.0 0.0 0.00 0.00 0.00 71 1013.5
20260508092040 42 275 0.0 0.0 0.00 0.00 0.00 70 1013.5
20260508091541 42 275 0.0 0.0 0.00 0.00 0.00 70 1013.6
20260508091041 42 275 0.0 0.0 0.00 0.00 0.00 70 1013.6
20260508090540 42 275 0.0 0.0 0.00 0.00 0.00 70 1013.6
20260508090040 42 275 0.0 0.0 0.00 0.00 0.00 70 1013.6
20260508085539 42 276 0.0 0.0 0.00 0.00 0.00 69 1013.6
20260508085039 42 275 0.0 0.0 0.00 0.00 0.00 69 1013.5
20260508084539 42 275 0.0 0.0 0.00 0.00 0.00 69 1013.5
20260508084039 42 275 0.0 0.0 0.00 0.00 0.00 69 1013.5
20260508083539 42 275 0.0 0.0 0.00 0.00 0.00 69 1013.5
20260508083042 42 275 0.0 0.0 0.00 0.00 0.00 69 1013.5
20260508082538 42 275 0.0 0.0 0.00 0.00 0.00 69 1013.5
20260508082039 42 275 0.0 0.0 0.00 0.00 0.00 69 1013.5
20260508081538 42 275 0.0 0.0 0.00 0.00 0.00 69 1013.3
20260508081037 42 276 0.0 0.0 0.00 0.00 0.00 69 1013.3
20260508080537 42 275 0.0 0.0 0.00 0.00 0.00 69 1013.4
20260508080037 42 275 0.0 0.0 0.00 0.00 0.00 69 1013.5
20260508075538 42 276 0.0 0.0 0.00 0.00 0.00 69 1013.4
20260508075038 42 275 0.0 0.0 0.00 0.00 0.00 69 1013.4
20260508074536 42 275 0.0 0.0 0.00 0.00 0.00 69 1013.4
20260508074038 42 275 0.0 0.0 0.00 0.00 0.00 69 1013.3
20260508073534 42 275 0.0 0.0 0.00 0.00 0.00 69 1013.3
20260508073040 42 275 0.0 0.0 0.00 0.00 0.00 69 1013.4
20260508072535 42 275 0.0 0.0 0.00 0.00 0.00 69 1013.3
20260508072034 42 275 0.0 0.0 0.00 0.00 0.00 69 1013.4
20260508071535 42 275 0.0 0.0 0.00 0.00 0.00 69 1013.4
20260508071133 42 275 0.0 0.0 0.00 0.00 0.00 69 1013.4
20260508070533 42 275 0.0 0.0 0.00 0.00 0.00 69 1013.3
20260508070033 42 275 0.0 0.0 0.00 0.00 0.00 69 1013.5
20260508065532 42 275 0.0 0.0 0.00 0.00 0.00 69 1013.5
20260508065035 42 275 0.0 0.0 0.00 0.00 0.00 69 1013.6
20260508064538 43 275 0.0 0.0 0.00 0.00 0.00 68 1013.8
20260508064031 43 275 0.0 0.0 0.00 0.00 0.00 68 1014.0
20260508063531 43 275 0.0 0.0 0.00 0.00 0.00 68 1014.0
20260508063039 43 275 0.0 0.0 0.00 0.00 0.00 67 1013.9
20260508062530 43 275 0.0 0.0 0.00 0.00 0.00 67 1014.0
20260508062028 43 275 0.0 0.0 0.00 0.00 0.00 67 1014.1
20260508061530 43 275 0.0 0.0 0.00 0.00 0.00 67 1014.1
20260508061027 43 275 0.0 0.0 0.00 0.00 0.00 67 1014.1
20260508060527 43 275 0.0 0.0 0.00 0.00 0.00 67 1014.2
20260508060027 43 275 0.0 0.0 0.00 0.00 0.00 67 1014.2
20260508055526 43 275 0.0 0.0 0.00 0.00 0.00 67 1014.2
20260508055026 43 275 0.0 0.0 0.00 0.00 0.00 67 1014.2
20260508054525 43 275 0.0 0.0 0.00 0.00 0.00 66 1014.2
20260508054025 43 275 0.0 0.0 0.00 0.00 0.00 66 1014.3
20260508053524 44 275 0.0 0.0 0.00 0.00 0.00 66 1014.2
20260508053024 44 275 0.0 0.0 0.00 0.00 0.00 66 1014.1
20260508052525 44 275 0.0 0.0 0.00 0.00 0.00 66 1014.1
20260508052021 44 275 0.0 0.0 0.00 0.00 0.00 66 1014.1
20260508051622 44 275 0.0 0.0 0.00 0.00 0.00 66 1014.0
20260508051020 44 275 0.0 0.0 0.00 0.00 0.00 66 1014.0
20260508050520 44 275 0.0 0.0 0.00 0.00 0.00 66 1014.0
20260508050030 44 275 0.0 0.0 0.00 0.00 0.00 66 1013.9
20260508045519 44 275 0.0 0.0 0.00 0.00 0.00 66 1013.9
20260508045019 45 275 0.0 0.0 0.00 0.00 0.00 66 1014.0
20260508044518 45 275 0.0 0.0 0.00 0.00 0.00 66 1014.0
20260508044018 45 275 0.0 0.0 0.00 0.00 0.00 65 1014.1
20260508043516 45 275 0.0 0.0 0.00 0.00 0.00 64 1013.9
20260508043016 45 275 0.0 0.0 0.00 0.00 0.00 64 1014.0
20260508042516 45 275 0.0 0.0 0.00 0.00 0.00 64 1014.0
20260508042020 45 275 0.0 0.0 0.00 0.00 0.00 63 1014.0
20260508041514 45 275 0.0 0.0 0.00 0.00 0.00 63 1013.9
20260508041014 45 275 0.0 0.0 0.00 0.00 0.00 63 1013.8
20260508040517 45 275 0.0 0.0 0.00 0.00 0.00 63 1013.7
20260508040013 45 275 0.0 0.0 0.00 0.00 0.00 63 1013.9
20260508035512 45 275 0.0 0.0 0.00 0.00 0.00 63 1013.7
20260508035012 45 275 0.0 0.0 0.00 0.00 0.00 62 1013.7
20260508034514 45 275 0.0 0.0 0.00 0.00 0.00 62 1013.9
20260508034012 45 275 0.0 0.0 0.00 0.00 0.00 61 1013.9
20260508033511 46 275 0.0 0.0 0.00 0.00 0.00 61 1014.0
20260508033012 46 275 0.0 0.0 0.00 0.00 0.00 61 1013.9
20260508032511 46 275 0.0 0.0 0.00 0.00 0.00 61 1013.9
20260508032010 46 275 0.0 0.0 0.00 0.00 0.00 60 1013.9
20260508031510 46 275 0.0 0.0 0.00 0.00 0.00 60 1013.9
20260508031010 46 275 0.0 0.0 0.00 0.00 0.00 60 1013.9
20260508030510 46 275 0.0 0.0 0.00 0.00 0.00 60 1013.9
20260508030010 47 275 0.0 0.0 0.00 0.00 0.00 60 1013.9
20260508025510 47 275 0.0 0.0 0.00 0.00 0.00 59 1014.0
20260508025010 47 275 0.0 0.0 0.00 0.00 0.00 59 1013.9
20260508024510 47 275 0.0 0.0 0.00 0.00 0.00 59 1013.9
20260508024010 47 278 0.0 0.0 0.00 0.00 0.00 59 1013.8
20260508023510 47 278 0.0 0.0 0.00 0.00 0.00 58 1013.7
20260508023009 48 278 0.0 0.0 0.00 0.00 0.00 58 1013.6
20260508022511 48 278 0.0 0.0 0.00 0.00 0.00 58 1013.7
20260508022009 48 278 0.0 0.0 0.00 0.00 0.00 57 1013.8
20260508021508 48 278 0.0 0.0 0.00 0.00 0.00 57 1013.6
20260508021011 49 278 0.0 0.0 0.00 0.00 0.00 57 1013.7
20260508020508 49 278 0.0 0.0 0.00 0.00 0.00 56 1013.8
20260508020008 49 278 0.0 0.0 0.00 0.01 0.00 56 1013.7
20260508015511 49 278 0.0 0.0 0.00 0.01 0.00 56 1013.7
20260508015008 50 278 0.0 0.0 0.00 0.01 0.00 55 1013.7
20260508014511 50 278 0.0 0.0 0.00 0.01 0.00 55 1013.7
20260508014008 50 278 0.0 0.0 0.00 0.01 0.00 54 1013.7
20260508013507 51 278 0.0 0.0 0.00 0.01 0.00 54 1013.7
20260508013007 51 278 0.0 0.0 0.00 0.01 0.00 52 1013.7
20260508012510 51 278 0.0 0.0 0.00 0.01 0.00 52 1013.7
20260508012007 52 278 0.0 0.0 0.00 0.01 0.00 52 1013.6
20260508011507 52 278 0.0 0.0 0.00 0.01 0.00 52 1013.6
20260508011006 53 278 0.0 0.0 0.00 0.01 0.00 51 1013.6
20260508010506 53 278 0.0 0.0 0.00 0.01 0.00 50 1013.5
20260508010009 53 278 0.0 0.0 0.00 0.01 0.00 50 1013.5
20260508005510 54 278 0.0 0.0 0.00 0.01 0.00 49 1013.5
20260508005007 54 278 0.0 0.0 0.00 0.01 0.00 48 1013.4
20260508004509 55 278 0.0 0.0 0.00 0.01 0.00 48 1013.5
20260508004006 55 278 0.0 0.0 0.00 0.01 0.00 46 1013.4
20260508003505 55 278 0.0 0.0 0.00 0.01 0.00 44 1013.4
20260508003006 56 278 0.0 0.0 0.00 0.01 0.00 43 1013.3
20260508002505 56 278 0.0 0.0 0.00 0.01 0.00 42 1013.3
20260508002005 56 278 0.0 1.0 0.00 0.01 0.00 41 1013.3
20260508001512 56 278 0.0 1.0 0.00 0.01 0.00 39 1013.2
20260508001005 56 320 0.0 0.0 0.00 0.01 0.00 38 1013.3
20260508000508 57 320 0.0 0.0 0.00 0.01 0.00 37 1013.3
20260508000005 57 320 0.0 0.0 0.00 0.01 0.00 37 1013.2